Hoquiam, WA
on Saturday, December 15, 2012

Saturday
Previous Day Next Day
Daily Summary
 ActualAverageRecord
Temperature
Mean Temperature °F 41°F  
Max Temperature 45°F 46°F 57°F (1976)
Min Temperature 36°F 37°F 25°F (1967)
Degree Days
Heating Degree Days 24 24  
Month to date heating degree days 347  
Cooling Degree Days 0 0  
Month to date cooling degree days 0  
Year to date cooling degree days 23  
Moisture
Dew Point 37°F   
Average Humidity 91    
Maximum Humidity 100    
Minimum Humidity 71    
Precipitation
Precipitation 0.42 in 0.31 in 2.44 in (1999)
Month to date precipitation 4.87  
Year to date precipitation 62.46  
Wind
Wind Speed 11 mph   
Max Wind Speed 22 mph   
Max Gust Speed 33 mph   
Visibility 8 miles   
Events Rain   

Key: T is trace of precipitation, MM is missing value
Source: NWS Daily Summary
Time(PST)TemperatureDew PointHumidity Pressure Visibility Wind DirectionWind SpeedGust SpeedPrecipitationEvents Conditions
12:53 AM 36.0°F 35.1°F 97% 29.88 in 10.0 miles ENE 10.4 mph - N/A   Overcast
1:53 AM 36.0°F 34.0°F 93% 29.87 in 10.0 miles ENE 11.5 mph - N/A   Overcast
2:53 AM 37.0°F 35.1°F 93% 29.85 in 10.0 miles ENE 10.4 mph - N/A   Overcast
3:53 AM 37.0°F 35.1°F 93% 29.80 in 10.0 miles ENE 11.5 mph - 0.00 in   Overcast
4:15 AM 37.4°F 35.6°F 93% 29.78 in 8.0 miles ENE 11.5 mph - 0.00 in Rain Light Rain
4:25 AM 37.4°F 35.6°F 93% 29.77 in 8.0 miles NE 12.7 mph - 0.01 in Rain Light Rain
4:53 AM 37.0°F 36.0°F 96% 29.78 in 7.0 miles ENE 11.5 mph - 0.01 in Rain Light Rain
5:53 AM 37.9°F 37.0°F 97% 29.75 in 6.0 miles ENE 12.7 mph - 0.03 in Rain Light Rain
6:53 AM 39.9°F 37.0°F 89% 29.73 in 9.0 miles East 16.1 mph - 0.03 in Rain Light Rain
7:14 AM 39.2°F 37.4°F 93% 29.71 in 9.0 miles East 13.8 mph - 0.01 in Rain Light Rain
7:53 AM 39.9°F 37.0°F 89% 29.70 in 10.0 miles East 15.0 mph - 0.02 in Rain Light Rain
8:53 AM 39.0°F 37.0°F 93% 29.68 in 8.0 miles East 15.0 mph - 0.02 in Rain Light Rain
9:53 AM 39.9°F 37.0°F 89% 29.65 in 8.0 miles East 13.8 mph - 0.02 in Rain Light Rain
10:53 AM 39.9°F 37.9°F 93% 29.60 in 5.0 miles East 13.8 mph - 0.02 in Rain Light Rain
11:53 AM 41.0°F 37.9°F 89% 29.55 in 8.0 miles East 15.0 mph - 0.01 in Rain Light Rain
12:34 PM 41.0°F 39.2°F 93% 29.55 in 3.0 miles SE 10.4 mph - 0.04 in Rain Light Rain
12:44 PM 42.8°F 39.2°F 87% 29.53 in 4.0 miles SE 12.7 mph - 0.06 in Rain Light Rain
12:53 PM 42.1°F 39.0°F 89% 29.54 in 5.0 miles ESE 13.8 mph - 0.08 in Rain Light Rain
1:03 PM 41.0°F 37.4°F 87% 29.52 in 6.0 miles SE 18.4 mph 33.4 mph 0.01 in Rain Light Rain
1:15 PM 41.0°F 39.2°F 93% 29.52 in 4.0 miles NNW 13.8 mph 20.7 mph 0.02 in Rain Light Rain
1:41 PM 39.2°F 39.2°F 100% 29.53 in 7.0 miles North 6.9 mph - 0.04 in Rain Light Rain
1:53 PM 39.0°F 37.9°F 96% 29.55 in 10.0 miles North 6.9 mph - 0.05 in Rain Light Rain
2:03 PM 39.2°F 37.4°F 93% 29.53 in 10.0 miles North 4.6 mph - 0.00 in Rain Light Rain
2:39 PM 39.2°F 37.4°F 93% 29.55 in 10.0 miles Variable 3.5 mph - 0.03 in Rain Light Rain
2:53 PM 39.0°F 37.9°F 96% 29.56 in 9.0 miles NE 3.5 mph - 0.04 in Rain Light Rain
3:17 PM 39.2°F 37.4°F 93% 29.55 in 10.0 miles NE 4.6 mph - 0.01 in   Overcast
3:47 PM 39.2°F 39.2°F 100% 29.56 in 6.0 miles North 5.8 mph - 0.02 in Rain Light Rain
3:48 PM 39.9°F 39.0°F 97% 29.57 in 6.0 miles North 4.6 mph - 0.02 in Rain Light Rain
4:22 PM 39.2°F 39.2°F 100% 29.57 in 10.0 miles Calm Calm - 0.00 in   Mostly Cloudy
4:53 PM 39.9°F 39.0°F 97% 29.59 in 10.0 miles NNW 4.6 mph - 0.00 in   Mostly Cloudy
5:53 PM 39.9°F 39.0°F 97% 29.61 in 7.0 miles Calm Calm - 0.01 in Rain Light Rain
6:53 PM 45.0°F 36.0°F 71% 29.63 in 10.0 miles West 21.9 mph 28.8 mph 0.00 in   Scattered Clouds
7:53 PM 41.0°F 35.1°F 79% 29.66 in 10.0 miles West 4.6 mph - 0.01 in   Partly Cloudy
8:53 PM 39.9°F 35.1°F 83% 29.68 in 8.0 miles WSW 4.6 mph - 0.02 in Rain Light Rain
9:53 PM 43.0°F 36.0°F 76% 29.70 in 10.0 miles WSW 6.9 mph - 0.01 in   Scattered Clouds
10:53 PM 44.1°F 36.0°F 73% 29.71 in 10.0 miles SW 11.5 mph - N/A   Mostly Cloudy
11:19 PM 41.0°F 35.6°F 81% 29.72 in 4.0 miles SW 16.1 mph 29.9 mph 0.02 in Rain Light Rain
11:29 PM 39.2°F 35.6°F 87% 29.71 in 7.0 miles SW 10.4 mph - 0.02 in Rain Light Rain
11:53 PM 42.1°F 37.0°F 82% 29.73 in 10.0 miles South 10.4 mph - 0.02 in   Scattered Clouds
Moon Phase
Dec. 15 Dec. 20 Dec. 28 Jan. 04 Jan. 11
Sunrise:07:55 AM (PST) Moon Rise:09:44 AM (PST)12/15
Sunset:04:27 PM (PST) Moon Set:07:47 PM (PST)12/15

Copyright © 2014 The Weather Underground, Inc.